Location: Albuquerque Trailhead
(34.7934°N, 106.3736°W)
Time: 03:57:09
(UTC+00:00)

USA 308 - Pass Details

Date: 20 June 2021
Orbit: 566 x 576 km, 54.0° (Epoch: 13 July)

Event Time Altitude Azimuth Distance (km) Brightness Sun altitude
Exits shadow 08:52:22 33° 328° (NNW) 959 4.2 -26.6°
Drops below altitude 10° 08:55:59 10° 27° (NNE) 1,862 6.5 -26.3°
Sets 08:58:24 0° 37° (NE) 2,761 7.7 -26.1°
